Location: Agus-us
(14.2247°N, 120.8593°E)
Time: 18:35:38
(UTC+00:00)

IRS-1D - Pass Details

Date: 13 December 2025
Orbit: 737 x 810 km, 98.8° (Epoch: 20 January)

Event Time Altitude Azimuth Distance (km) Brightness Sun altitude
Rises 21:15:37 0° 357° (N) 3,232 6.5 -13.5°
Reaches altitude 10° 21:18:06 10° 347° (NNW) 2,317 5.7 -13.0°
Maximum altitude 21:22:37 32° 285° (WNW) 1,310 4.2 -12.0°
Drops below altitude 10° 21:27:13 10° 223° (SW) 2,356 5.8 -10.9°
Sets 21:29:46 0° 213° (SSW) 3,295 6.7 -10.3°
